Find Starlink 34387

NORAD ID: 64315 Int'l Des: 2025-123 Owner: SPXS Country: US Constellation: starlink operational
LEOCIRCULAR

当前视图

正在加载3D地球...

关于 Starlink 34387

正在加载描述...

即将过境

Passes for default location (London). Set your location on the main map for personalized predictions.

高度历史

Loading altitude history...

两行轨道根数

1 64315U 25123AA 26150.95690558 .00002762 00000-0 23919-3 0 9997
2 64315 70.0009 346.9403 0002727 268.6481 91.4366 14.98335573 53947
Epoch: May 30, 2026 • Age: 9 hours

当前状态

高度 594.7 km
速度 7.56 km/s
星下点 -66.41°S, 148.67°W
发射日期 Jun 8, 2025
运行时间 0.9 years
类型 internet

技术详情

分类 Payload
质量 575.00 kg
干质量 530.00 kg
总质量 575.00 kg
长度 0.30 m
直径 4.10 m
跨度 29.00 m
形状 Box + pan
制造商 SPXS
平台类型 Starlink V2MO
阶段状态 In Orbit
所有者/国家 SPXS/US

Most Searched